Cupcake? Heresy? Pony? 4 stacks of plexi?

NorlinBlackBeauty

Senior Member
Joined
Oct 28, 2017
Messages
17,007
Reaction score
49,471
I hope this is the last day of this for the season ...

Code:
EASTERN PENNSYLVANIA
   
 CITY           SKY/WX    TMP DP  RH WIND       PRES   REMARKS
 PHILADELPHIA   FAIR      90  69  50 W8        30.07F HX  94           
 NORTH PHILA    FAIR      91  70  49 W7G16     30.08F HX  96           
 BLUE BELL*     FAIR      89  71  55 W6        30.08F HX  94           
 DOYLESTOWN     FAIR      91  69  48 SW9       30.07F HX  96           
 QUAKERTOWN*    SUNNY     88  72  58 SW7       30.08F HX  94           
 PERKASIE*      FAIR      88  72  58 SW6G16    30.09F HX  94           
 POTTSTOWN      FAIR      87  71  58 VRB6      30.09F HX  93           
 LANCASTER      FAIR      92  69  47 W8        30.08F HX  97           
 COATESVILLE    FAIR      88  72  58 S5        30.11F HX  94           
 WEST CHESTER   FAIR      90  68  48 SW6       30.09F HX  93           
 READING        FAIR      90  73  57 SW7       30.06F HX  98           
 ALLENTOWN      FAIR      90  70  51 SW12      30.06F HX  95           
 QN CITY/ALNTWN FAIR      88  72  58 SW9       30.08F HX  94           
 MOUNT POCONO   PTSUNNY   83  67  58 W10       30.14F                  
 HAZLETON       FAIR      84  68  58 W5        30.16F                  
 LEHIGHTON      FAIR      90  64  43 W6        30.07F HX  91           
 WILKES BARRE   PTSUNNY   87  69  54 SW13G21   30.07F HX  91
 

Bytor1958

Senior Member
Joined
Jan 9, 2013
Messages
11,905
Reaction score
29,205
I hope this is the last day of this for the season ...

Code:
EASTERN PENNSYLVANIA
  
CITY           SKY/WX    TMP DP  RH WIND       PRES   REMARKS
PHILADELPHIA   FAIR      90  69  50 W8        30.07F HX  94          
NORTH PHILA    FAIR      91  70  49 W7G16     30.08F HX  96          
BLUE BELL*     FAIR      89  71  55 W6        30.08F HX  94          
DOYLESTOWN     FAIR      91  69  48 SW9       30.07F HX  96          
QUAKERTOWN*    SUNNY     88  72  58 SW7       30.08F HX  94          
PERKASIE*      FAIR      88  72  58 SW6G16    30.09F HX  94          
POTTSTOWN      FAIR      87  71  58 VRB6      30.09F HX  93          
LANCASTER      FAIR      92  69  47 W8        30.08F HX  97          
COATESVILLE    FAIR      88  72  58 S5        30.11F HX  94          
WEST CHESTER   FAIR      90  68  48 SW6       30.09F HX  93          
READING        FAIR      90  73  57 SW7       30.06F HX  98          
ALLENTOWN      FAIR      90  70  51 SW12      30.06F HX  95          
QN CITY/ALNTWN FAIR      88  72  58 SW9       30.08F HX  94          
MOUNT POCONO   PTSUNNY   83  67  58 W10       30.14F                 
HAZLETON       FAIR      84  68  58 W5        30.16F                 
LEHIGHTON      FAIR      90  64  43 W6        30.07F HX  91          
WILKES BARRE   PTSUNNY   87  69  54 SW13G21   30.07F HX  91
It's hot a humid here and rain headed this away.
1568235872681.png

1568235994832.png
 

NorlinBlackBeauty

Senior Member
Joined
Oct 28, 2017
Messages
17,007
Reaction score
49,471
It's hot a humid here and rain headed this away.
View attachment 405665
View attachment 405666
Oooof ... that heat index! To be expected in TX.

Some rain here later - maybe. Been rather dry as opposed to earlier in the year.

Looks like many regions are close to where I am:

Code:
TEXAS HILL COUNTRY AND EDWARDS PLATEAU

CITY           SKY/WX    TMP DP  RH WIND       PRES   REMARKS
JUNCTION       MOSUNNY   92  65  40 S12G25    30.03F HX  94
*LLANO         MOSUNNY   95  66  38 SE7       30.05F HX  98
BURNET         PTSUNNY   88  68  51 CALM      30.05F HX  91
*HORSESHOE BAY MOSUNNY   91  68  46 SE7       30.02F HX  95
*KERRVILLE     LGT RAIN  79  71  76 CALM      30.05F
*FREDERICKSBRG MOSUNNY   89  67  47 SE9G18    30.05F HX  92
*ROCKSPRINGS   MOSUNNY   84  66  54 S13G22    30.11F
*BOERNE        PTSUNNY   81  68  65 SE13      30.07F
*CASTROVILLE   MOSUNNY   87  61  42 S18G25    30.02F
HONDO          PTSUNNY   87  70  56 SE22G30   30.00F HX  92
*UVALDE        MOSUNNY   90  69  50 SE13G22   30.00F HX  94
DEL RIO        MOSUNNY   97  67  37 SE16G26   29.94F HX 101
LAUGHLIN AFB   SUNNY     95  64  36 SE17      29.94F HX  97
SPOFFORD       MOSUNNY   94  67  40 SE20      29.90F HX  97
*EAGLE PASS    MOSUNNY   95  66  38 SE9G22    29.96F HX  98
CARRIZO SPRGS  PTSUNNY   91  68  46 SE9G16    29.95F HX  95
*FAITH RANCH   PTSUNNY   95  68  41 MISG      29.95F HX  99
$$

TXZ173-191>194-202-209-217>225-228-112200-
CENTRAL AND SOUTH CENTRAL TEXAS

CITY           SKY/WX    TMP DP  RH WIND       PRES   REMARKS
GEORGETOWN     MOSUNNY   92  70  48 SE10      30.02F HX  97
AUSTIN/BERGSTM PTSUNNY   93  69  45 S15       29.98F HX  98
AUSTIN/MABRY   MOSUNNY   95  64  35 SE5       30.00F HX  97
*AUSTIN/EXEC   MOSUNNY   91  66  43 S9        30.00F HX  94
*LAGO VISTA    MOSUNNY   92  67  43 SE8       30.03F HX  96
SAN MARCOS     MOSUNNY   81  73  78 S8        30.04F
NEW BRAUNFELS  PTSUNNY   86  68  54 S26G35    30.02S
RANDOLPH AFB   PTSUNNY   80  72  75 S14       30.03F
SEGUIN         CLOUDY    77  72  86 SE9       30.06F
KELLY FIELD    PTSUNNY   79  74  84 E13       30.00F
SAN ANTONIO    CLOUDY    80  69  69 S15G29    30.04R
STINSON FIELD  PTSUNNY   80  74  81 E7        30.01S
PLEASANTON     PTSUNNY   90  69  51 SE17G26   30.00F HX  94
*LA GRANGE     PTSUNNY   93  75  55 S17       30.00F HAZE    HX 103
*GIDDINGS      SUNNY     95  69  42 SE15G23   30.02F HX 100
*GONZALES      RAIN      74  74  97 CALM      30.04F
$$

TXZ163>164-176>182-195>201-210>213-226-227-235-112200-
SOUTHEAST TEXAS

CITY           SKY/WX    TMP DP  RH WIND       PRES   REMARKS
COLLEGE STN    SUNNY     93  66  40 SE16      30.02F HX  96
*BRYAN         SUNNY     97  67  38 SE15G22   30.03F HX 101
*CALDWELL      MOSUNNY   92  69  46 SE14G21   30.02F HX  98
*CROCKETT      SUNNY     79  72  78 CALM      30.09F
*BRENHAM       MOSUNNY   94  66  39 E10       30.03F HX  97
HUNTSVILLE     SUNNY     90  70  51 S5        30.05F HX  95
CONROE         PTSUNNY   90  72  55 SE6       30.04F HX  97
HOUSTON BUSH   MOSUNNY   92  72  51 SE10G18   30.03F HX  99
HOUSTON HOBBY  LGT RAIN  85  74  69 E5        30.04F HX  92
*HOUSTON SW AP FAIR      89  75  61 E7        30.04F HX  99
PEARLAND       LGT RAIN  84  76  76 E15       30.06F HX  93
HOUSTON HOOKS  FAIR      92  70  48 SE9       30.03F HX  97
ELLINGTON FLD  PTSUNNY   90  72  55 E9        30.08S HX  96
SUGAR LAND     FAIR      94  73  50 SE13      30.03F HX 103
*HOUSTON EXEC  FAIR      95  70  43 SE12      30.03F HX 101
*CLEVELAND MUN FAIR      88  71  56 W7        30.06F HX  94
*WHARTON       PTSUNNY   84  72  65 S12       30.03S HX  90
*COLUMBUS      PTSUNNY   93  59  31 SE7G17    30.03S HX  92
*EAGLE LAKE    SUNNY     98  68  37 S10G17    30.02  HX 103
 

efstop

Gold Supporter
Premium Member
Joined
May 29, 2015
Messages
5,533
Reaction score
14,389
We're having a warm spell for the next few days, high '70s, high humidity. I'm next to Lake Ontario, after all.

Soon I'll be shoveling out my car, so I'll take what we have.
 

Bytor1958

Senior Member
Joined
Jan 9, 2013
Messages
11,905
Reaction score
29,205
Oooof ... that heat index! To be expected in TX.

Some rain here later - maybe. Been rather dry as opposed to earlier in the year.

Looks like many regions are close to where I am:

Code:
TEXAS HILL COUNTRY AND EDWARDS PLATEAU

CITY           SKY/WX    TMP DP  RH WIND       PRES   REMARKS
JUNCTION       MOSUNNY   92  65  40 S12G25    30.03F HX  94
*LLANO         MOSUNNY   95  66  38 SE7       30.05F HX  98
BURNET         PTSUNNY   88  68  51 CALM      30.05F HX  91
*HORSESHOE BAY MOSUNNY   91  68  46 SE7       30.02F HX  95
*KERRVILLE     LGT RAIN  79  71  76 CALM      30.05F
*FREDERICKSBRG MOSUNNY   89  67  47 SE9G18    30.05F HX  92
*ROCKSPRINGS   MOSUNNY   84  66  54 S13G22    30.11F
*BOERNE        PTSUNNY   81  68  65 SE13      30.07F
*CASTROVILLE   MOSUNNY   87  61  42 S18G25    30.02F
HONDO          PTSUNNY   87  70  56 SE22G30   30.00F HX  92
*UVALDE        MOSUNNY   90  69  50 SE13G22   30.00F HX  94
DEL RIO        MOSUNNY   97  67  37 SE16G26   29.94F HX 101
LAUGHLIN AFB   SUNNY     95  64  36 SE17      29.94F HX  97
SPOFFORD       MOSUNNY   94  67  40 SE20      29.90F HX  97
*EAGLE PASS    MOSUNNY   95  66  38 SE9G22    29.96F HX  98
CARRIZO SPRGS  PTSUNNY   91  68  46 SE9G16    29.95F HX  95
*FAITH RANCH   PTSUNNY   95  68  41 MISG      29.95F HX  99
$$

TXZ173-191>194-202-209-217>225-228-112200-
CENTRAL AND SOUTH CENTRAL TEXAS

CITY           SKY/WX    TMP DP  RH WIND       PRES   REMARKS
GEORGETOWN     MOSUNNY   92  70  48 SE10      30.02F HX  97
AUSTIN/BERGSTM PTSUNNY   93  69  45 S15       29.98F HX  98
AUSTIN/MABRY   MOSUNNY   95  64  35 SE5       30.00F HX  97
*AUSTIN/EXEC   MOSUNNY   91  66  43 S9        30.00F HX  94
*LAGO VISTA    MOSUNNY   92  67  43 SE8       30.03F HX  96
SAN MARCOS     MOSUNNY   81  73  78 S8        30.04F
NEW BRAUNFELS  PTSUNNY   86  68  54 S26G35    30.02S
RANDOLPH AFB   PTSUNNY   80  72  75 S14       30.03F
SEGUIN         CLOUDY    77  72  86 SE9       30.06F
KELLY FIELD    PTSUNNY   79  74  84 E13       30.00F
SAN ANTONIO    CLOUDY    80  69  69 S15G29    30.04R
STINSON FIELD  PTSUNNY   80  74  81 E7        30.01S
PLEASANTON     PTSUNNY   90  69  51 SE17G26   30.00F HX  94
*LA GRANGE     PTSUNNY   93  75  55 S17       30.00F HAZE    HX 103
*GIDDINGS      SUNNY     95  69  42 SE15G23   30.02F HX 100
*GONZALES      RAIN      74  74  97 CALM      30.04F
$$

TXZ163>164-176>182-195>201-210>213-226-227-235-112200-
SOUTHEAST TEXAS

CITY           SKY/WX    TMP DP  RH WIND       PRES   REMARKS
COLLEGE STN    SUNNY     93  66  40 SE16      30.02F HX  96
*BRYAN         SUNNY     97  67  38 SE15G22   30.03F HX 101
*CALDWELL      MOSUNNY   92  69  46 SE14G21   30.02F HX  98
*CROCKETT      SUNNY     79  72  78 CALM      30.09F
*BRENHAM       MOSUNNY   94  66  39 E10       30.03F HX  97
HUNTSVILLE     SUNNY     90  70  51 S5        30.05F HX  95
CONROE         PTSUNNY   90  72  55 SE6       30.04F HX  97
HOUSTON BUSH   MOSUNNY   92  72  51 SE10G18   30.03F HX  99
HOUSTON HOBBY  LGT RAIN  85  74  69 E5        30.04F HX  92
*HOUSTON SW AP FAIR      89  75  61 E7        30.04F HX  99
PEARLAND       LGT RAIN  84  76  76 E15       30.06F HX  93
HOUSTON HOOKS  FAIR      92  70  48 SE9       30.03F HX  97
ELLINGTON FLD  PTSUNNY   90  72  55 E9        30.08S HX  96
SUGAR LAND     FAIR      94  73  50 SE13      30.03F HX 103
*HOUSTON EXEC  FAIR      95  70  43 SE12      30.03F HX 101
*CLEVELAND MUN FAIR      88  71  56 W7        30.06F HX  94
*WHARTON       PTSUNNY   84  72  65 S12       30.03S HX  90
*COLUMBUS      PTSUNNY   93  59  31 SE7G17    30.03S HX  92
*EAGLE LAKE    SUNNY     98  68  37 S10G17    30.02  HX 103
The heat index is the normal here. We've been in a drought for the last 3 months. I'm ready for some rain. Bring it on..
 

efstop

Gold Supporter
Premium Member
Joined
May 29, 2015
Messages
5,533
Reaction score
14,389
I don't get depressed, but I go to work in the dark most of the year. I start some mornings before 5 AM, so even in summer, it isn't all that light out. In winter, sometimes it's dark again before I go home.

But, that's going to change when I quit in January. I'll be poor, but I will be freer. I'll have what's left of my guitars and amps to comfort me.
 

CerebralGasket

Senior Member
Joined
Sep 18, 2011
Messages
550
Reaction score
1,646
Oooof ... that heat index! To be expected in TX.

Some rain here later - maybe. Been rather dry as opposed to earlier in the year.

Looks like many regions are close to where I am:

Code:
TEXAS HILL COUNTRY AND EDWARDS PLATEAU

CITY           SKY/WX    TMP DP  RH WIND       PRES   REMARKS
JUNCTION       MOSUNNY   92  65  40 S12G25    30.03F HX  94
*LLANO         MOSUNNY   95  66  38 SE7       30.05F HX  98
BURNET         PTSUNNY   88  68  51 CALM      30.05F HX  91
*HORSESHOE BAY MOSUNNY   91  68  46 SE7       30.02F HX  95
*KERRVILLE     LGT RAIN  79  71  76 CALM      30.05F
*FREDERICKSBRG MOSUNNY   89  67  47 SE9G18    30.05F HX  92
*ROCKSPRINGS   MOSUNNY   84  66  54 S13G22    30.11F
*BOERNE        PTSUNNY   81  68  65 SE13      30.07F
*CASTROVILLE   MOSUNNY   87  61  42 S18G25    30.02F
HONDO          PTSUNNY   87  70  56 SE22G30   30.00F HX  92
*UVALDE        MOSUNNY   90  69  50 SE13G22   30.00F HX  94
DEL RIO        MOSUNNY   97  67  37 SE16G26   29.94F HX 101
LAUGHLIN AFB   SUNNY     95  64  36 SE17      29.94F HX  97
SPOFFORD       MOSUNNY   94  67  40 SE20      29.90F HX  97
*EAGLE PASS    MOSUNNY   95  66  38 SE9G22    29.96F HX  98
CARRIZO SPRGS  PTSUNNY   91  68  46 SE9G16    29.95F HX  95
*FAITH RANCH   PTSUNNY   95  68  41 MISG      29.95F HX  99
$$

TXZ173-191>194-202-209-217>225-228-112200-
CENTRAL AND SOUTH CENTRAL TEXAS

CITY           SKY/WX    TMP DP  RH WIND       PRES   REMARKS
GEORGETOWN     MOSUNNY   92  70  48 SE10      30.02F HX  97
AUSTIN/BERGSTM PTSUNNY   93  69  45 S15       29.98F HX  98
AUSTIN/MABRY   MOSUNNY   95  64  35 SE5       30.00F HX  97
*AUSTIN/EXEC   MOSUNNY   91  66  43 S9        30.00F HX  94
*LAGO VISTA    MOSUNNY   92  67  43 SE8       30.03F HX  96
SAN MARCOS     MOSUNNY   81  73  78 S8        30.04F
NEW BRAUNFELS  PTSUNNY   86  68  54 S26G35    30.02S
RANDOLPH AFB   PTSUNNY   80  72  75 S14       30.03F
SEGUIN         CLOUDY    77  72  86 SE9       30.06F
KELLY FIELD    PTSUNNY   79  74  84 E13       30.00F
SAN ANTONIO    CLOUDY    80  69  69 S15G29    30.04R
STINSON FIELD  PTSUNNY   80  74  81 E7        30.01S
PLEASANTON     PTSUNNY   90  69  51 SE17G26   30.00F HX  94
*LA GRANGE     PTSUNNY   93  75  55 S17       30.00F HAZE    HX 103
*GIDDINGS      SUNNY     95  69  42 SE15G23   30.02F HX 100
*GONZALES      RAIN      74  74  97 CALM      30.04F
$$

TXZ163>164-176>182-195>201-210>213-226-227-235-112200-
SOUTHEAST TEXAS

CITY           SKY/WX    TMP DP  RH WIND       PRES   REMARKS
COLLEGE STN    SUNNY     93  66  40 SE16      30.02F HX  96
*BRYAN         SUNNY     97  67  38 SE15G22   30.03F HX 101
*CALDWELL      MOSUNNY   92  69  46 SE14G21   30.02F HX  98
*CROCKETT      SUNNY     79  72  78 CALM      30.09F
*BRENHAM       MOSUNNY   94  66  39 E10       30.03F HX  97
HUNTSVILLE     SUNNY     90  70  51 S5        30.05F HX  95
CONROE         PTSUNNY   90  72  55 SE6       30.04F HX  97
HOUSTON BUSH   MOSUNNY   92  72  51 SE10G18   30.03F HX  99
HOUSTON HOBBY  LGT RAIN  85  74  69 E5        30.04F HX  92
*HOUSTON SW AP FAIR      89  75  61 E7        30.04F HX  99
PEARLAND       LGT RAIN  84  76  76 E15       30.06F HX  93
HOUSTON HOOKS  FAIR      92  70  48 SE9       30.03F HX  97
ELLINGTON FLD  PTSUNNY   90  72  55 E9        30.08S HX  96
SUGAR LAND     FAIR      94  73  50 SE13      30.03F HX 103
*HOUSTON EXEC  FAIR      95  70  43 SE12      30.03F HX 101
*CLEVELAND MUN FAIR      88  71  56 W7        30.06F HX  94
*WHARTON       PTSUNNY   84  72  65 S12       30.03S HX  90
*COLUMBUS      PTSUNNY   93  59  31 SE7G17    30.03S HX  92
*EAGLE LAKE    SUNNY     98  68  37 S10G17    30.02  HX 103
When you post those weather reports in that format, it reminds of a screen dump of the "top" command on a UNIX machine.
 

DarrellV

just Livin' the Dream....
Premium Member
Joined
Oct 31, 2016
Messages
27,506
Reaction score
74,735
Just test fired the Masterlink I bought used from Parkway a while back..



Seems to work ok and I copied 3 tracks from a CD to give to the band to practice...

Next I'm going to get it hooked up with my DAW to move stuff from the digital domain directly to disk.

I wanted to bypass Windows and media player and computer grade CD roms for burning my finished stuff.

Finally got there after all these years. I've wanted one of these for almost as long as I've had my ADATS...

That's a long time! LOL!!!

Nice response 'curve' too! LOL!

 
Last edited:




Top